Home > Weather > Landshut > Past weeks

Flag for Germany Past Weather in Landshut, Bavaria, Germany — Yesterday and Last 2 Weeks

Now
55 °F

Clear.


Feels Like: 55 °F
Forecast: 55 / 59 °F
Wind: 5 mph from Southwest

Location: Munich / Franz Josef Strauss Airport

Current Time: May 31, 2016 at 4:15:37 AM

Latest Report: May 31, 2016 at 3:50 AM


Visibility: 10 mi

Pressure: 29.83 "Hg

Humidity: 94%

Dew Point: 54 °F

Location of LandshutLocation

Past Weather in Landshut — Graph

°F

Landshut Temperature Yesterday

Maximum temperature yesterday: 70 °F (at 3:50 PM)
Minimum temperature yesterday: 55 °F (at 3:20 AM)
Average temperature yesterday: 60 °F

High & Low Weather Summary for the Past Weeks

 TemperatureHumidityPressure
High81 °F (May 22, 3:20 PM)100% (May 16, 11:20 PM)30.18 "Hg (May 16, 11:20 PM)
Low37 °F (May 17, 5:20 AM)30% (May 22, 3:50 PM)29.59 "Hg (May 29, 4:50 PM)
Average56 °F80%29.95 "Hg
* Reported May 16 3:20 AM — May 31 3:20 AM, Landshut, Weather by CustomWeather, © 2016

Note: Actual official high and low records may vary slightly from our data, if they occured in-between our weather recording intervals... More about our weather records

Advertising

Landshut Weather History for the Previous 24 Hours

Scroll right to see more
 ConditionsComfort  
Time TempWeatherWind HumidityBarometerVisibility
3:20 AM
Tue, May 31
55 °FClear.5 mph94%29.83 "Hg10 mi
2:50 AM55 °FClear.5 mph94%29.83 "Hg10 mi
2:20 AM55 °FClear.3 mph94%29.83 "Hg10 mi
1:50 AM55 °FClear.5 mph94%29.83 "Hg10 mi
1:20 AM55 °FPartly cloudy.7 mph94%29.83 "HgN/A
12:50 AM55 °FPassing clouds.7 mph100%29.83 "HgN/A
12:20 AM55 °FLight rain. Partly cloudy.5 mph94%29.83 "HgN/A
11:50 PM
Mon, May 30
55 °FLight rain. Partly cloudy.7 mph100%29.83 "HgN/A
11:20 PM55 °FPassing clouds.8 mph100%29.83 "HgN/A
10:50 PM55 °FLight rain. Passing clouds.9 mph100%29.83 "HgN/A
10:20 PM55 °FLight rain. Passing clouds.9 mph100%29.83 "HgN/A
9:50 PM55 °FLight rain. Broken clouds.12 mph100%29.83 "HgN/A
9:20 PM55 °FLight rain. Broken clouds.13 mph100%29.83 "HgN/A
8:50 PM55 °FLight rain. Broken clouds.9 mph100%29.83 "HgN/A
8:20 PM57 °FSprinkles. Broken clouds.14 mph94%29.83 "HgN/A
7:50 PM57 °FRain showers. Broken clouds.13 mph100%29.80 "HgN/A
7:20 PM59 °FSprinkles. Broken clouds.15 mph94%29.80 "HgN/A
6:50 PM59 °FRain showers. Broken clouds.14 mph94%29.80 "HgN/A
6:20 PM59 °FRain. Broken clouds.15 mph94%29.77 "HgN/A
5:50 PM63 °FSprinkles. Broken clouds.15 mph77%29.77 "HgN/A
5:20 PM63 °FScattered showers. Broken clouds.14 mph77%29.77 "HgN/A
4:50 PM66 °FScattered showers. Broken clouds.9 mph64%29.77 "HgN/A
4:20 PM68 °FScattered clouds.7 mph56%29.74 "HgN/A
3:50 PM70 °FScattered clouds.8 mph53%29.74 "HgN/A
3:20 PM68 °FScattered clouds.10 mph56%29.74 "HgN/A
2:50 PM66 °FScattered clouds.10 mph64%29.74 "HgN/A
2:20 PM68 °FScattered clouds.12 mph60%29.74 "HgN/A
1:50 PM66 °FScattered clouds.16 mph60%29.74 "HgN/A
1:20 PM64 °FScattered clouds.9 mph64%29.74 "HgN/A
12:50 PM64 °FScattered clouds.14 mph64%29.74 "HgN/A
12:20 PM64 °FScattered clouds.16 mph68%29.74 "HgN/A
11:50 AM66 °FScattered clouds.18 mph64%29.74 "HgN/A
11:20 AM64 °FScattered clouds.15 mph68%29.74 "HgN/A
10:50 AM63 °FPartly sunny.13 mph77%29.74 "HgN/A
10:20 AM63 °FScattered clouds.15 mph73%29.74 "HgN/A
9:50 AM61 °FBroken clouds.15 mph77%29.74 "HgN/A
9:20 AM61 °FBroken clouds.16 mph83%29.74 "HgN/A
8:50 AM59 °FBroken clouds.13 mph88%29.74 "HgN/A
8:20 AM59 °FDrizzle. Broken clouds.13 mph88%29.74 "HgN/A
7:50 AM59 °FLight rain. Broken clouds.12 mph88%29.74 "HgN/A
7:20 AM59 °FDrizzle. Broken clouds.12 mph88%29.74 "HgN/A
6:50 AM57 °FPartly sunny.13 mph94%29.71 "HgN/A
6:20 AM57 °FBroken clouds.8 mph88%29.71 "HgN/A
5:50 AM57 °FPassing clouds.9 mph88%29.71 "HgN/A
5:20 AM55 °FPartly cloudy.12 mph100%29.71 "HgN/A
4:50 AM55 °FPassing clouds.12 mph94%29.68 "HgN/A
4:20 AM55 °FPartly cloudy.9 mph100%29.71 "HgN/A
Weather by CustomWeather, © 2016

See weather overviewHow to use our weather pages